EW4496 Weather Reports


time (UTC)temp
F
wind
direction
speed
knots
gust
knots
rain 1hr
in
rain 24hr
in
rain mn
in
humidity
%
barometer
mb
20260903070040 61 248 0.0 0.0 0.00 0.00 0.00 75 1014.9
20260903064540 62 278 0.0 0.0 0.00 0.00 0.00 73 1014.9
20260903063107 62 283 0.0 0.0 0.00 0.00 0.00 72 1014.9
20260903061540 63 315 0.0 1.7 0.00 0.00 0.00 70 1014.9
20260903060039 63 307 0.0 3.5 0.00 0.00 0.00 68 1014.9
20260903054539 64 281 0.0 3.5 0.00 0.00 0.00 66 1014.9
20260903053110 65 283 0.0 0.9 0.00 0.00 0.00 66 1014.9
20260903051609 65 312 0.0 0.9 0.00 0.00 0.00 65 1014.9
20260903050129 65 319 0.0 0.0 0.00 0.00 0.00 65 1015.0
20260903044509 66 293 0.0 0.0 0.00 0.00 0.00 63 1015.0
20260903043039 67 293 0.0 0.0 0.00 0.00 0.00 61 1014.9
20260903041539 67 292 0.0 0.0 0.00 0.00 0.00 59 1014.7
20260903040039 69 288 0.0 1.7 0.00 0.00 0.00 57 1014.5
20260903034538 69 341 0.9 5.2 0.00 0.00 0.00 56 1014.1
20260903033024 69 335 0.0 4.3 0.00 0.00 0.00 55 1014.0
20260903031538 70 338 0.0 0.0 0.00 0.00 0.00 54 1013.9
20260903030038 71 325 0.0 4.3 0.00 0.00 0.00 53 1013.9
20260903024538 71 360 0.0 0.0 0.00 0.00 0.00 53 1014.1
20260903023042 73 352 0.0 4.3 0.00 0.00 0.00 52 1014.1
20260903021538 74 349 0.0 3.5 0.00 0.00 0.00 51 1014.0
20260903020043 76 338 0.0 5.2 0.00 0.00 0.00 50 1014.1
20260903014548 76 217 0.0 5.2 0.00 0.00 0.00 50 1014.1
20260903013038 78 328 2.6 7.8 0.00 0.00 0.00 49 1014.2
20260903011555 78 7 1.7 7.0 0.00 0.00 0.00 48 1014.2
20260903010038 78 311 0.9 7.0 0.00 0.00 0.00 49 1014.3
20260903004541 78 349 0.0 4.3 0.00 0.00 0.00 48 1014.3
20260903003009 79 344 2.6 7.0 0.00 0.00 0.00 46 1014.4
20260903001548 79 35 0.0 7.0 0.00 0.00 0.00 46 1014.5
20260903000050 79 309 1.7 7.0 0.00 0.00 0.00 46 1014.5
20260902234602 80 342 1.7 6.1 0.00 0.00 0.00 44 1014.7
20260902233102 79 328 0.9 9.6 0.00 0.00 0.00 45 1014.7
20260902231608 79 4 0.9 6.1 0.00 0.00 0.00 44 1014.8
20260902224603 79 356 0.0 6.1 0.00 0.00 0.00 47 1015.0
20260902223107 79 41 1.7 9.6 0.00 0.00 0.00 47 1015.1
20260902221602 79 314 0.9 7.0 0.00 0.00 0.00 46 1015.1
20260902220104 79 14 0.9 7.0 0.00 0.00 0.00 46 1015.2
20260902214602 80 46 1.7 7.8 0.00 0.00 0.00 44 1015.4
20260902213003 79 8 0.0 7.0 0.00 0.00 0.00 45 1015.6
20260902211501 80 322 0.9 7.0 0.00 0.00 0.00 44 1015.7
20260902210002 79 323 0.9 6.1 0.00 0.00 0.00 45 1015.7
20260902204501 79 319 1.7 7.8 0.00 0.00 0.00 46 1015.8
20260902203002 78 262 0.0 7.0 0.00 0.00 0.00 49 1016.1
20260902201502 78 307 0.9 5.2 0.00 0.00 0.00 47 1016.2
20260902200001 78 302 0.0 7.8 0.00 0.00 0.00 46 1016.4
20260902194501 76 295 0.9 7.8 0.00 0.00 0.00 50 1016.6
20260902193002 75 350 0.9 7.0 0.00 0.00 0.00 51 1016.7
20260902191601 76 4 1.7 6.1 0.00 0.00 0.00 52 1016.9
20260902184604 75 314 0.0 7.8 0.00 0.00 0.00 54 1017.0
20260902183102 74 268 0.0 5.2 0.00 0.00 0.00 54 1017.0
20260902181602 75 180 0.9 6.1 0.00 0.00 0.00 53 1017.0
20260902180130 75 340 0.0 4.3 0.00 0.00 0.00 53 1017.0
20260902174601 74 287 0.0 2.6 0.00 0.00 0.00 57 1016.9
20260902173101 73 281 0.9 3.5 0.00 0.00 0.00 58 1017.0
20260902171600 71 219 0.0 3.5 0.00 0.00 0.00 60 1017.0
20260902170005 72 260 0.0 3.5 0.00 0.00 0.00 61 1016.9
20260902164615 70 200 0.0 3.5 0.00 0.00 0.00 62 1016.7
20260902163115 69 296 0.0 3.5 0.00 0.00 0.00 65 1016.6
20260902161615 67 265 0.0 0.9 0.00 0.00 0.00 69 1016.8
20260902160115 66 80 0.0 1.7 0.00 0.00 0.00 72 1016.8
20260902154615 65 209 0.0 2.6 0.00 0.00 0.00 72 1016.8
20260902153115 64 207 0.0 2.6 0.00 0.00 0.00 74 1016.7
20260902151615 61 212 0.0 2.6 0.00 0.00 0.00 76 1016.6
20260902150015 60 165 0.0 1.7 0.00 0.00 0.00 77 1016.5
20260902144527 60 203 0.0 3.5 0.00 0.00 0.00 78 1016.4
20260902143018 59 173 0.0 1.7 0.00 0.00 0.00 80 1016.3
20260902141522 58 166 0.0 1.7 0.00 0.00 0.00 81 1016.4
20260902140018 57 188 0.0 1.7 0.00 0.00 0.00 82 1016.4
20260902134530 57 189 0.0 1.7 0.00 0.00 0.00 81 1016.3
20260902133023 57 209 0.0 0.9 0.00 0.00 0.00 82 1016.0
20260902131530 57 176 0.0 1.7 0.00 0.00 0.00 82 1015.8
20260902130144 57 174 0.0 1.7 0.00 0.00 0.00 82 1015.8
20260902124545 57 265 0.0 1.7 0.00 0.00 0.00 82 1015.7
20260902123053 57 205 0.0 1.7 0.00 0.00 0.00 82 1015.8
20260902121548 57 173 0.0 1.7 0.00 0.00 0.00 81 1015.7
20260902120046 57 173 0.0 0.0 0.00 0.00 0.00 82 1015.7
20260902114545 57 174 0.0 0.9 0.00 0.00 0.00 82 1015.7
20260902113047 57 178 0.0 1.7 0.00 0.00 0.00 81 1015.7
20260902111549 57 186 0.0 0.9 0.00 0.00 0.00 81 1015.6
20260902110047 57 207 0.0 2.6 0.00 0.00 0.00 81 1015.7
20260902104552 57 218 0.0 0.0 0.00 0.00 0.00 81 1015.8
20260902103044 58 218 0.0 0.0 0.00 0.00 0.00 81 1015.9
20260902101544 58 218 0.0 0.9 0.00 0.00 0.00 80 1016.0
20260902094544 58 220 0.0 0.9 0.00 0.00 0.00 80 1016.1
20260902093047 58 219 0.0 3.5 0.00 0.00 0.00 79 1016.1
20260902091559 58 245 0.0 1.7 0.00 0.00 0.00 80 1016.0
20260902090059 58 211 0.0 1.7 0.00 0.00 0.00 80 1015.9
20260902084610 59 262 0.0 3.5 0.00 0.00 0.00 80 1016.0
20260902083113 59 217 0.9 2.6 0.00 0.00 0.00 80 1016.0
20260902081513 59 247 0.9 4.3 0.00 0.00 0.00 81 1015.9
20260902080013 59 216 0.0 2.6 0.00 0.00 0.00 80 1015.8
20260902074513 59 233 0.9 2.6 0.00 0.00 0.00 80 1015.8
20260902073013 59 233 0.9 2.6 0.00 0.00 0.00 79 1015.8
20260902071528 60 274 0.9 3.5 0.00 0.00 0.00 79 1015.7